Tracking 21094 objects as of 13-Aug-2020
HD Live streaming from Space Station
objects crossing your sky now
Track the most recent launched group of Starlink satellites

SHIYAN 6 02 (SY-6 02)

Track SHIYAN 6 02 (SY-6 02) now!
10-day predictions


NORAD ID: 45859
Int'l Code: 2020-043A
Perigee: 691.9 km
Apogee: 714.6 km
Inclination: 98.2 °
Period: 98.7 minutes
Semi major axis: 7074 km
RCS: Unknown
Launch date: July 4, 2020
Source: People's Republic of China (PRC)
Launch site: Jiuquan Satellite Launch Center, China (JSC)
aabbcc
Your satellite tracking list
Your tracking list is empty




NASA's NSSDC Master Catalog

Two Line Element Set (TLE):
1 45859U 20043A   20226.12342176  .00000004  00000-0  10786-4 0  9998
2 45859  98.2060 232.2386 0016049 137.1510 223.0943 14.59079534  5704
Source of the keplerian elements: AFSPC